Regional Weather Roundup
Issued by NWS

Home | Current Version | Previous Version | Graphics & Text | Print | Product List | Glossary On
Versions: 1 2 3 4 5 6 7 8 9 10 11 12 13 14 15 16 17 18 19 20 21 22 23 24 25 26 27 28 29 30 31 32 33 34 35 36 37 38 39 40 41 42 43 44 45 46 47 48 49 50
996
ASUS43 KBIS 190610
RWRND

NORTH DAKOTA REGIONAL WEATHER ROUNDUP
NATIONAL WEATHER SERVICE BISMARCK ND
100 AM CDT THU OCT 19 2017

NOTE: "FAIR" INDICATES FEW OR NO CLOUDS BELOW 12,000 FEET WITH NO
SIGNIFICANT WEATHER AND/OR OBSTRUCTIONS TO VISIBILITY.


NDZ001>003-009>011-017-190700-
NORTHWEST NORTH DAKOTA

CITY           SKY/WX    TMP DP  RH WIND       PRES   REMARKS
WILLISTON      CLOUDY    37  28  70 CALM      29.82F
6HR MIN TEMP:  33; 6HR MAX TEMP:  53;

MINOT          CLOUDY    41  26  55 S6        29.85F
MINOT AFB      CLOUDY    36  24  61 S6        29.83F
$$

NDZ018>021-031>035-040>046-190700-
SOUTHWEST NORTH DAKOTA

CITY           SKY/WX    TMP DP  RH WIND       PRES   REMARKS
BISMARCK       CLOUDY    37  26  64 NE5       29.92F
6HR MIN TEMP:  35; 6HR MAX TEMP:  53;

DICKINSON      CLOUDY    45  26  47 S12       29.84F
GARRISON         N/A     39  31  72 SE5       29.88F
6HR MIN TEMP:  34; 6HR MAX TEMP:  48;

HETTINGER ARPT CLOUDY    42  24  49 SE3       29.90F
$$

NDZ004>008-012>016-024-026-027-054-190700-
NORTHEAST NORTH DAKOTA

CITY           SKY/WX    TMP DP  RH WIND       PRES   REMARKS
GRAND FORKS    CLEAR     46  25  43 SW9       29.89R
GRND FRKS AFB  CLEAR     46  23  40 W12       29.89R
DEVILS LAKE    CLEAR     43  31  62 SW12      29.90S
$$

NDZ022-023-025-028>030-036>039-047>053-190700-
SOUTHEAST NORTH DAKOTA

CITY           SKY/WX    TMP DP  RH WIND       PRES   REMARKS
FARGO          PTCLDY    39  27  62 SW7       29.95S
6HR MIN TEMP:  39; 6HR MAX TEMP:  52;

JAMESTOWN      CLOUDY    37  25  61 SW6       29.94S
$$





USA.gov is the U.S. government's official web portal to all federal, state and local government web resources and services.